Location: Kuffner-Sternwarte
(48.2130°N, 16.2960°E)
Time: 00:20:34
(UTC+02:00)

COROT - Pass Details

Date: 19 August 2018
Orbit: 599 x 890 km, 90.0° (Epoch: 18 August)

Event Time Altitude Azimuth Distance (km) Brightness Sun altitude
Exits shadow 03:14:56 - 141° (SE) 2,422 8.4 -21.9°
Reaches altitude 10° 03:15:41 10° 137° (SE) 2,153 8.2 -21.8°
Maximum altitude 03:19:43 29° 79° (ENE) 1,230 7.5 -21.4°
Drops below altitude 10° 03:23:32 10° 20° (NNE) 2,036 9.2 -21.0°
Sets 03:25:54 0° 9° (N) 2,918 10.0 -20.8°
